When you browse on this site, cookies collect data to enhance your experience and personalize the content and advertising you see.
Visit our Privacy Policy to learn more. By continuing to use the site, you agree to this use of cookies and data.
  • In Hungary
  • List of Countries
  • For 7 days
  • Water Temperature
  • Weather Map
  • News
  • Weather Widgets
  • user-avatar
    Login

    Hourly Weather Baramati

    Today, 22 February, Saturday

    Time Temperature Precipitation Wind Pressure Humidity
    00:00 +24°C° 0 mm 1 mps 715 mmHg 42%
    01:00 +23°C° 0 mm 1 mps 715 mmHg 43%
    02:00 +23°C° 0 mm 1 mps 714 mmHg 45%
    03:00 +23°C° 0 mm 1 mps 714 mmHg 44%
    04:00 +21°C° 0 mm 2 mps 714 mmHg 42%
    05:00 +21°C° 0 mm 2 mps 714 mmHg 41%
    06:00 +23°C° 0 mm 2 mps 715 mmHg 38%
    07:00 +25°C° 0 mm 3 mps 716 mmHg 36%
    08:00 +26°C° 0 mm 3 mps 717 mmHg 33%
    09:00 +28°C° 0 mm 4 mps 717 mmHg 30%
    10:00 +30°C° 0 mm 4 mps 717 mmHg 27%
    11:00 +34°C° 0 mm 4 mps 717 mmHg 24%
    12:00 +34°C° 0 mm 4 mps 716 mmHg 22%
    13:00 +35°C° 0 mm 3 mps 715 mmHg 20%
    14:00 +36°C° 0 mm 2 mps 715 mmHg 18%
    15:00 +36°C° 0 mm 2 mps 714 mmHg 17%
    16:00 +36°C° 0 mm 2 mps 714 mmHg 17%
    17:00 +36°C° 0 mm 2 mps 714 mmHg 16%
    18:00 +34°C° 0 mm 2 mps 714 mmHg 19%
    19:00 +31°C° 0 mm 2 mps 714 mmHg 22%
    20:00 +28°C° 0 mm 2 mps 715 mmHg 24%
    21:00 +27°C° 0 mm 2 mps 715 mmHg 27%
    22:00 +26°C° 0 mm 2 mps 715 mmHg 29%
    23:00 +25°C° 0 mm 1 mps 715 mmHg 31%

    Tomorrow, 23 February, Sunday

    Time Temperature Precipitation Wind Pressure Humidity
    00:00 +24°C° 0 mm 1 mps 714 mmHg 34%
    01:00 +23°C° 0 mm 1 mps 714 mmHg 36%
    02:00 +22°C° 0 mm 1 mps 713 mmHg 38%
    03:00 +22°C° 0 mm 1 mps 713 mmHg 38%
    04:00 +22°C° 0 mm 1 mps 713 mmHg 38%
    05:00 +21°C° 0 mm 1 mps 713 mmHg 37%
    06:00 +23°C° 0 mm 2 mps 714 mmHg 35%
    07:00 +25°C° 0 mm 3 mps 715 mmHg 32%
    08:00 +27°C° 0 mm 3 mps 716 mmHg 29%
    09:00 +29°C° 0 mm 4 mps 716 mmHg 27%
    10:00 +32°C° 0 mm 4 mps 716 mmHg 25%
    11:00 +34°C° 0 mm 5 mps 716 mmHg 23%
    12:00 +35°C° 0 mm 4 mps 715 mmHg 21%
    13:00 +36°C° 0 mm 3 mps 714 mmHg 19%
    14:00 +37°C° 0 mm 2 mps 713 mmHg 17%
    15:00 +37°C° 0 mm 2 mps 713 mmHg 17%
    16:00 +36°C° 0 mm 1 mps 713 mmHg 16%
    17:00 +36°C° 0 mm 1 mps 712 mmHg 16%
    18:00 +33°C° 0 mm 1 mps 713 mmHg 19%
    19:00 +31°C° 0 mm 2 mps 713 mmHg 22%
    20:00 +28°C° 0 mm 2 mps 713 mmHg 25%
    21:00 +27°C° 0 mm 2 mps 713 mmHg 27%
    22:00 +26°C° 0 mm 2 mps 713 mmHg 29%
    23:00 +25°C° 0 mm 2 mps 713 mmHg 31%

    Day after tomorrow, 24 February, Monday

    Time Temperature Precipitation Wind Pressure Humidity
    00:00 +25°C° 0 mm 2 mps 713 mmHg 33%
    01:00 +24°C° 0 mm 2 mps 712 mmHg 35%
    02:00 +23°C° 0 mm 1 mps 712 mmHg 37%
    03:00 +23°C° 0 mm 1 mps 712 mmHg 37%
    04:00 +22°C° 0 mm 1 mps 712 mmHg 38%
    05:00 +22°C° 0 mm 1 mps 711 mmHg 39%
    06:00 +24°C° 0 mm 1 mps 712 mmHg 34%
    07:00 +26°C° 0 mm 1 mps 713 mmHg 30%
    08:00 +28°C° 0 mm 1 mps 714 mmHg 26%
    09:00 +30°C° 0 mm 1 mps 714 mmHg 23%
    10:00 +32°C° 0 mm 1 mps 715 mmHg 19%
    11:00 +34°C° 0 mm 1 mps 715 mmHg 16%
    12:00 +35°C° 0 mm 1 mps 714 mmHg 15%
    13:00 +35°C° 0 mm 1 mps 713 mmHg 14%
    14:00 +36°C° 0 mm 1 mps 712 mmHg 14%
    15:00 +37°C° 0 mm 2 mps 711 mmHg 13%
    16:00 +37°C° 0 mm 2 mps 711 mmHg 13%
    17:00 +37°C° 0 mm 3 mps 711 mmHg 13%
    18:00 +35°C° 0 mm 3 mps 711 mmHg 15%
    19:00 +31°C° 0 mm 3 mps 711 mmHg 17%
    20:00 +29°C° 0 mm 3 mps 711 mmHg 20%
    21:00 +28°C° 0 mm 4 mps 712 mmHg 22%
    22:00 +27°C° 0 mm 4 mps 712 mmHg 25%
    23:00 +26°C° 0 mm 4 mps 712 mmHg 28%

    25 February, Tuesday

    Time Temperature Precipitation Wind Pressure Humidity
    00:00 +25°C° 0 mm 4 mps 711 mmHg 29%
    01:00 +24°C° 0 mm 3 mps 711 mmHg 30%
    02:00 +22°C° 0 mm 3 mps 710 mmHg 31%
    03:00 +21°C° 0 mm 3 mps 710 mmHg 31%
    04:00 +21°C° 0 mm 3 mps 711 mmHg 30%
    05:00 +20°C° 0 mm 3 mps 711 mmHg 30%
    06:00 +21°C° 0 mm 3 mps 711 mmHg 28%
    07:00 +23°C° 0 mm 4 mps 712 mmHg 25%
    08:00 +25°C° 0 mm 5 mps 713 mmHg 23%
    09:00 +28°C° 0 mm 5 mps 713 mmHg 21%
    10:00 +30°C° 0 mm 5 mps 714 mmHg 18%
    11:00 +33°C° 0 mm 6 mps 714 mmHg 15%
    12:00 +34°C° 0 mm 5 mps 713 mmHg 14%
    13:00 +35°C° 0 mm 4 mps 712 mmHg 13%
    14:00 +36°C° 0 mm 4 mps 711 mmHg 12%
    15:00 +35°C° 0 mm 3 mps 711 mmHg 12%
    16:00 +35°C° 0 mm 3 mps 710 mmHg 12%
    17:00 +35°C° 0 mm 3 mps 710 mmHg 11%
    18:00 +31°C° 0 mm 3 mps 710 mmHg 13%
    19:00 +29°C° 0 mm 2 mps 711 mmHg 16%
    20:00 +26°C° 0 mm 2 mps 711 mmHg 18%
    21:00 +25°C° 0 mm 2 mps 711 mmHg 19%
    22:00 +25°C° 0 mm 3 mps 711 mmHg 19%
    23:00 +24°C° 0 mm 3 mps 711 mmHg 20%

    26 February, Wednesday

    Time Temperature Precipitation Wind Pressure Humidity
    00:00 +22°C° 0 mm 3 mps 711 mmHg 21%
    01:00 +21°C° 0 mm 3 mps 711 mmHg 22%
    02:00 +21°C° 0 mm 3 mps 710 mmHg 23%
    03:00 +20°C° 0 mm 2 mps 710 mmHg 25%
    04:00 +18°C° 0 mm 2 mps 710 mmHg 27%
    05:00 +18°C° 0 mm 1 mps 710 mmHg 29%
    06:00 +20°C° 0 mm 2 mps 711 mmHg 26%
    07:00 +23°C° 0 mm 2 mps 712 mmHg 23%
    08:00 +25°C° 0 mm 2 mps 713 mmHg 20%
    09:00 +28°C° 0 mm 4 mps 713 mmHg 17%
    10:00 +32°C° 0 mm 5 mps 714 mmHg 15%
    11:00 +35°C° 0 mm 6 mps 714 mmHg 12%
    12:00 +35°C° 0 mm 5 mps 713 mmHg 12%
    13:00 +36°C° 0 mm 4 mps 712 mmHg 11%
    14:00 +37°C° 0 mm 2 mps 711 mmHg 11%
    15:00 +37°C° 0 mm 2 mps 711 mmHg 10%
    16:00 +37°C° 0 mm 2 mps 711 mmHg 10%
    17:00 +37°C° 0 mm 2 mps 711 mmHg 10%
    18:00 +34°C° 0 mm 2 mps 711 mmHg 12%
    19:00 +31°C° 0 mm 3 mps 711 mmHg 14%
    20:00 +28°C° 0 mm 3 mps 712 mmHg 15%
    21:00 +27°C° 0 mm 3 mps 712 mmHg 17%
    22:00 +25°C° 0 mm 2 mps 712 mmHg 18%
    23:00 +24°C° 0 mm 2 mps 712 mmHg 20%

    27 February, Thursday

    Time Temperature Precipitation Wind Pressure Humidity
    00:00 +23°C° 0 mm 2 mps 712 mmHg 22%
    01:00 +22°C° 0 mm 1 mps 711 mmHg 24%
    02:00 +21°C° 0 mm 1 mps 711 mmHg 26%
    03:00 +21°C° 0 mm 1 mps 711 mmHg 30%
    04:00 +21°C° 0 mm 1 mps 711 mmHg 34%
    05:00 +21°C° 0 mm 2 mps 711 mmHg 38%
    06:00 +23°C° 0 mm 2 mps 712 mmHg 41%
    07:00 +25°C° 0 mm 2 mps 713 mmHg 44%
    08:00 +26°C° 0 mm 2 mps 713 mmHg 47%
    09:00 +29°C° 0 mm 3 mps 714 mmHg 42%
    10:00 +31°C° 0 mm 3 mps 714 mmHg 36%
    11:00 +35°C° 0 mm 4 mps 714 mmHg 31%
    12:00 +36°C° 0 mm 3 mps 713 mmHg 28%
    13:00 +37°C° 0 mm 3 mps 712 mmHg 24%
    14:00 +38°C° 0 mm 2 mps 711 mmHg 20%
    15:00 +38°C° 0 mm 2 mps 711 mmHg 21%
    16:00 +37°C° 0 mm 2 mps 711 mmHg 21%
    17:00 +37°C° 0 mm 2 mps 711 mmHg 21%
    18:00 +35°C° 0 mm 2 mps 711 mmHg 24%
    19:00 +32°C° 0 mm 2 mps 712 mmHg 28%
    20:00 +30°C° 0 mm 2 mps 712 mmHg 31%
    21:00 +29°C° 0 mm 2 mps 712 mmHg 32%
    22:00 +28°C° 0 mm 2 mps 712 mmHg 33%
    23:00 +27°C° 0 mm 3 mps 712 mmHg 34%
    Show more